Estación Meteorológica Peña el Pijo (Robertgarden) [ 07/15/20 07:43:27 CEST ]

Fecha Hora Presion(HPa) Temp (°C) Humedad % Rocio (°C) Viento ( m/s) Direccion Lluvia 1Hora(mm) Lluvia 24H(mm) LLuvia Total(mm)
2020-May-30 01:09:16 1008.600 - - - - W     39.88
2020-May-30 02:09:22 1008.300 - - - - W     39.88
2020-May-30 03:09:25 1008.200 - - - - W     39.88
2020-May-30 04:09:06 1008.300 - - - - W     39.88
2020-May-30 05:09:37 1008.100 - - - - W     39.88
2020-May-30 06:08:51 1007.800 - - - - W     39.88
2020-May-30 07:09:34 1008.000 - - - - W     39.88
2020-May-30 08:09:17 1008.100 - - - - W     39.88
2020-May-30 09:09:10 1007.900 - - - - W     39.88
2020-May-30 10:09:22 1007.700 - - - - W     39.88
2020-May-30 11:09:13 1007.500 - - - - W     39.88
2020-May-30 12:09:24 1007.500 - - - - W     39.88
2020-May-30 13:08:58 1007.200 - - - - W     39.88
2020-May-30 14:09:16 1007.200 - - - - W     39.88
2020-May-30 15:09:14 1006.800 - - - - W     39.88
2020-May-30 16:09:07 1006.600 - - - - W     39.88
2020-May-30 17:09:10 1006.400 - - - - W     39.88
2020-May-30 18:09:16 1006.200 - - - - W     39.88
2020-May-30 19:09:12 1005.800 - - - - W     39.88
2020-May-30 20:09:14 1006.200 - - - - W     39.88
2020-May-30 21:08:44 1006.200 - - - - W     39.88
2020-May-30 22:09:16 1006.300 - - - - W     39.88
2020-May-30 23:09:10 1007.500 - - - - W     39.88

Temperatura Máxima:    Temperatura Mínima:
Presión Máxima:1008.600 Hpa    Presión Mínima:1005.800 Hpa


Volver